[ hide orbit diagram ]
For accurate long-term ephemerides, please instead use our Horizons system.This orbit viewer was implemented using two-body methods, and hence should not be used for determining accurate long-term trajectories (over several years or decades) or planetary encounter circumstances.
Orbital Elements at Epoch 2459200.5 (2020-Dec-17.0) TDB
Reference: JPL 23 (heliocentric ecliptic J2000)
Element | Value | Uncertainty (1-sigma) | Units |
e | .07909689194223982 | 4.6543e-08 | |
a | 3.435874668628967 | 4.017e-08 | au |
q | 3.164107661237343 | 1.475e-07 | au |
i | 9.052929391640765 | 4.7101e-06 | deg |
node | 124.5574926540496 | 3.4602e-05 | deg |
peri | 129.5050615725487 | 5.0889e-05 | deg |
M | 147.6283996252578 | 3.9949e-05 | deg |
tp | 2458246.558355880886 (2018-May-08.05835588) | 0.00025322 | TDB |
period | 2326.239346593346 6.37 | 4.0795e-05 1.117e-07 | d yr |
n | .1547562165205403 | 2.7139e-09 | deg/d |
Q | 3.707641676020592 | 4.3347e-08 | au |
|
| | Orbit Determination Parameters
Additional Information
|
[ show covariance matrix ]
Physical Parameter Table
Parameter |
Symbol |
Value |
Units |
Sigma |
Reference |
Notes |
absolute magnitude |
H |
14.6 |
|
n/a |
MPO320503 |
|
diameter |
diameter |
7.940 |
km |
0.436 |
urn:nasa:pds:neowise_diameters_albedos::2.0[mainbelt] (http://adsabs.harvard.edu/abs/2011ApJ...741...68M) |
|
geometric albedo |
albedo |
0.049 |
|
0.011 |
urn:nasa:pds:neowise_diameters_albedos::2.0[mainbelt] (http://adsabs.harvard.edu/abs/2011ApJ...741...68M) |
|
|
136367 Gierlinger | Discovered 2004 Mar. 10 at Altschwendt. |
Richard Gierlinger (b. 1967) is an Austrian amateur astronomer and telescope builder, who has discovered numerous minor planets at his private observatory. |
NOTE: some special characters may not display properly (any characters within {} are an attempt to place the proper accent above a character) |
Reference: MPC batch dated 2013-07-22 | Last Updated: 2014-08-13 |
|
[ show close-approach data ]
|